Location: Unspecified
(35.6961°N, 0.0000°E)
Time: 16:09:53
(UTC+00:00)

Explorer 11/Cluster Stage 4 - Visible Passes

Search period start: 23 May 2019 00:00
Search period end: 02 June 2019 00:00
Orbit: 467 x 1260 km, 28.8° (Epoch: 23 May)

Date Brightness Start Highest point End Pass type
(mag) Time Alt. Az. Time Alt. Az. Time Alt. Az.
23 May 7.3 03:40:19 17° SSW 03:42:41 26° S 03:46:07 10° ESE visible
24 May 7.2 03:30:05 21° SSW 03:32:09 29° S 03:35:50 10° ESE visible
25 May 7.1 03:19:51 25° SSW 03:21:37 32° S 03:25:32 10° ESE visible
26 May 7.0 03:09:34 29° SSW 03:11:04 35° S 03:15:13 10° ESE visible
27 May 7.0 02:59:18 34° SSW 03:00:30 38° S 03:04:52 10° ESE visible
28 May 7.0 02:49:03 38° SSW 02:49:54 40° S 02:54:30 10° ESE visible
29 May 7.0 02:38:50 41° SSW 02:39:18 42° S 02:44:06 10° ESE visible
30 May 7.0 02:28:41 43° S 02:28:41 43° S 02:33:41 10° ESE visible
30 May 7.4 04:12:05 10° WSW 04:16:45 27° SSW 04:20:40 10° SE visible
31 May 7.2 02:18:37 43° S 02:18:37 43° S 02:23:15 10° ESE visible
31 May 7.5 04:01:21 10° WSW 04:06:07 25° SSW 04:10:06 10° SE visible
01 Jun 7.4 02:08:43 38° SSE 02:08:43 38° SSE 02:12:46 10° ESE visible
01 Jun 7.7 03:50:53 11° WSW 03:55:26 24° SSW 03:59:30 10° SSE visible
01 Jun 8.9 20:26:31 10° S 20:29:37 14° SSE 20:29:37 14° SSE visible
